K7JKM Weather Reports


time (UTC)temp
C
wind
direction
speed
KPH
gust
KPH
rain 1hr
cm
rain 24hr
cm
rain mn
cm
humidity
%
barometer
mb
20260901054528 16 271 0.0 1.6 0.00 0.00 0.00 64 1010.4
20260901053023 16 330 0.0 4.8 0.00 0.00 0.00 64 1010.3
20260901051520 16 283 0.0 4.8 0.00 0.00 0.00 63 1010.2
20260901050036 16 163 0.0 3.2 0.00 0.00 0.00 63 1010.0
20260901044540 16 182 1.6 8.0 0.00 0.00 0.00 62 1009.8
20260901043014 16 323 0.0 8.0 0.00 0.00 0.00 61 1009.7
20260901041509 17 298 0.0 6.4 0.00 0.00 0.00 59 1009.3
20260901040010 18 148 0.0 8.0 0.00 0.00 0.00 56 1009.2
20260901034503 18 205 0.0 4.8 0.00 0.00 0.00 53 1008.8
20260901033004 19 18 0.0 14.5 0.00 0.00 0.00 52 1008.6
20260901031504 20 330 0.0 9.7 0.00 0.00 0.00 49 1008.4
20260901030022 20 300 3.2 11.3 0.00 0.00 0.00 48 1008.2
20260901024526 21 323 1.6 8.0 0.00 0.00 0.00 45 1008.0
20260901023012 22 308 4.8 11.3 0.00 0.00 0.00 43 1007.8
20260901021510 23 312 3.2 8.0 0.00 0.00 0.00 40 1007.8
20260901020006 23 326 1.6 8.0 0.00 0.00 0.00 38 1007.7
20260901014504 25 295 3.2 8.0 0.00 0.00 0.00 37 1007.7
20260901013004 26 317 3.2 9.7 0.00 0.00 0.00 35 1007.6
20260901011525 27 335 4.8 12.9 0.00 0.00 0.00 32 1007.5
20260901010023 30 124 0.0 1.6 0.00 0.00 0.00 24 1007.4
20260901004532 30 120 0.0 1.6 0.00 0.00 0.00 24 1007.5
20260901003010 30 134 0.0 1.6 0.00 0.00 0.00 25 1007.6
20260901001522 30 141 0.0 1.6 0.00 0.00 0.00 26 1007.6
20260901000013 30 335 0.0 1.6 0.00 0.00 0.00 27 1007.6
20260831234530 30 127 0.0 1.6 0.00 0.00 0.00 25 1007.8
20260831233029 30 124 0.0 4.8 0.00 0.00 0.00 28 1007.8
20260831231527 30 314 0.0 4.8 0.00 0.00 0.00 28 1007.9
20260831230025 30 276 0.0 1.6 0.00 0.00 0.00 28 1008.0
20260831224518 28 21 0.0 1.6 0.00 0.00 0.00 30 1008.0
20260831223016 28 42 0.0 1.6 0.00 0.00 0.00 31 1008.1
20260831221523 27 319 0.0 1.6 0.00 0.00 0.00 33 1008.3
20260831220034 27 312 0.0 3.2 0.00 0.00 0.00 34 1008.6
20260831214558 26 301 0.0 3.2 0.00 0.00 0.00 33 1008.7
20260831213027 26 57 0.0 4.8 0.00 0.00 0.00 34 1008.9
20260831211527 26 51 0.0 1.6 0.00 0.00 0.00 36 1009.0
20260831210003 25 353 0.0 6.4 0.00 0.00 0.00 39 1009.2
20260831204518 25 218 0.0 3.2 0.00 0.00 0.00 38 1009.3
20260831203014 24 252 0.0 3.2 0.00 0.00 0.00 40 1009.5
20260831201526 25 304 0.0 6.4 0.00 0.00 0.00 38 1009.7
20260831200016 23 117 0.0 4.8 0.00 0.00 0.00 42 1009.7
20260831194506 22 321 0.0 3.2 0.00 0.00 0.00 42 1009.9
20260831193007 22 223 0.0 4.8 0.00 0.00 0.00 45 1010.1
20260831191503 22 302 0.0 3.2 0.00 0.00 0.00 43 1010.3
20260831190039 21 80 0.0 1.6 0.00 0.00 0.00 50 1010.6
20260831184522 21 302 0.0 4.8 0.00 0.00 0.00 51 1010.8
20260831183025 20 285 0.0 3.2 0.00 0.00 0.00 53 1011.0
20260831181514 20 298 0.0 3.2 0.00 0.00 0.00 53 1011.0
20260831180012 20 124 0.0 4.8 0.00 0.00 0.00 55 1011.2
20260831174506 19 124 0.0 3.2 0.00 0.00 0.00 58 1011.4
20260831173003 18 133 0.0 1.6 0.00 0.00 0.00 59 1011.5
20260831171527 18 133 0.0 3.2 0.00 0.00 0.00 61 1011.5
20260831170026 17 163 0.0 0.0 0.00 0.00 0.00 64 1011.8
20260831164530 16 128 0.0 4.8 0.00 0.00 0.00 66 1012.0
20260831163037 15 134 0.0 0.0 0.00 0.00 0.00 68 1012.1
20260831161519 15 138 0.0 1.6 0.00 0.00 0.00 69 1012.3
20260831160028 14 128 0.0 0.0 0.00 0.00 0.00 72 1012.3
20260831154539 13 82 0.0 0.0 0.00 0.00 0.00 74 1012.3
20260831153033 12 58 0.0 0.0 0.00 0.00 0.00 79 1012.3
20260831151531 11 61 0.0 0.0 0.00 0.00 0.00 80 1012.3
20260831150028 11 61 0.0 0.0 0.00 0.00 0.00 80 1012.4
20260831144525 10 61 0.0 0.0 0.00 0.00 0.00 79 1012.4
20260831143028 10 61 0.0 0.0 0.00 0.00 0.00 77 1012.4
20260831141524 9 61 0.0 0.0 0.00 0.00 0.00 75 1012.3
20260831140030 9 61 0.0 0.0 0.00 0.00 0.00 74 1012.3
20260831134535 9 61 0.0 0.0 0.00 0.00 0.00 73 1012.4
20260831133035 9 61 0.0 0.0 0.00 0.00 0.00 72 1012.5
20260831131541 10 61 0.0 0.0 0.00 0.00 0.00 72 1012.6
20260831130036 10 61 0.0 0.0 0.00 0.00 0.00 72 1012.7
20260831124536 10 61 0.0 0.0 0.00 0.00 0.00 72 1012.7
20260831123024 10 61 0.0 0.0 0.00 0.00 0.00 70 1012.7
20260831121520 10 61 0.0 0.0 0.00 0.00 0.00 70 1012.8
20260831120006 10 61 0.0 0.0 0.00 0.00 0.00 70 1012.8
20260831114505 10 62 0.0 0.0 0.00 0.00 0.00 69 1012.9
20260831113007 10 61 0.0 0.0 0.00 0.00 0.00 68 1013.0
20260831111513 10 61 0.0 0.0 0.00 0.00 0.00 68 1013.1
20260831110006 11 61 0.0 0.0 0.00 0.00 0.00 68 1013.2
20260831104505 11 61 0.0 0.0 0.00 0.00 0.00 68 1013.1
20260831103003 11 61 0.0 0.0 0.00 0.00 0.00 67 1013.2
20260831101510 11 61 0.0 0.0 0.00 0.00 0.00 68 1013.2
20260831100009 11 61 0.0 0.0 0.00 0.00 0.00 67 1013.4
20260831094511 11 61 0.0 0.0 0.00 0.00 0.00 67 1013.6
20260831093010 12 61 0.0 0.0 0.00 0.00 0.00 67 1013.7
20260831091507 12 61 0.0 0.0 0.00 0.00 0.00 67 1013.9
20260831090004 12 61 0.0 0.0 0.00 0.00 0.00 67 1014.1
20260831084509 12 61 0.0 0.0 0.00 0.00 0.00 67 1014.1
20260831083012 12 61 0.0 0.0 0.00 0.00 0.00 67 1014.2
20260831081519 12 61 0.0 0.0 0.00 0.00 0.00 67 1014.3
20260831080028 13 61 0.0 0.0 0.00 0.00 0.00 66 1014.4
20260831074516 13 61 0.0 0.0 0.00 0.00 0.00 66 1014.5
20260831073012 13 61 0.0 0.0 0.00 0.00 0.00 65 1014.6
20260831071509 14 61 0.0 0.0 0.00 0.00 0.00 64 1014.7
20260831070012 15 62 0.0 0.0 0.00 0.00 0.00 62 1014.9
20260831064522 15 61 0.0 0.0 0.00 0.00 0.00 61 1015.1
20260831063018 16 61 0.0 0.0 0.00 0.00 0.00 59 1015.1
20260831061527 16 61 0.0 0.0 0.00 0.00 0.00 58 1015.2
20260831060023 16 288 0.0 1.6 0.00 0.00 0.00 57 1015.4